Location: Memphis
(29.8667°N, 31.2500°E)
Time: 07:46:57
(UTC+00:00)

Meteor 1-19 Rocket - Pass Details

Date: 03 March 2021
Orbit: 807 x 928 km, 81.2° (Epoch: 15 April)

Event Time Altitude Azimuth Distance (km) Brightness Sun altitude
Rises 17:03:33 0° 351° (N) 3,532 7.6 -15.5°
Reaches altitude 10° 17:06:03 10° 350° (N) 2,573 6.9 -16.1°
Maximum altitude 17:11:55 81° 264° (W) 891 4.4 -17.3°
Drops below altitude 10° 17:17:33 10° 178° (S) 2,478 6.6 -18.6°
Sets 17:19:55 0° 177° (S) 3,393 7.3 -19.1°
